{"data":{"norad_id":43440,"intl_designator":"2018-040B","name":"ZHUHAI-1 OVS-02","alt_names":[],"object_type":"PAYLOAD","status":"ACTIVE","operator":null,"country":"PRC","launch_date":"2018-04-26","launch_site_code":"JSC","launch_vehicle":null,"mission":null,"orbit_class":"UNKNOWN","rcs_meters":null,"size_class":null,"mass_kg":null,"dimensions":null,"purposes":[],"wikipedia_slug":null,"has_3d_model":false,"image_url":null,"decayed_at":null,"tle_current":{"epoch":"2026-05-25T04:45:14.097312Z","epoch_age_seconds":68656,"freshness":"FRESH","line1":"1 43440U 18040B   26145.19807983  .00007011  00000+0  28637-3 0  9998","line2":"2 43440  97.0405 163.7959 0003384  16.6689 343.4660 15.24666930449214","mean_motion":15.2466693,"eccentricity":0.0003384,"inclination_deg":97.0405,"raan_deg":163.7959,"arg_perigee_deg":16.6689,"mean_anomaly_deg":343.466,"bstar":0.00028637,"rev_number":44921,"period_min":94.446857321159,"perigee_km":489.46097909833,"apogee_km":494.11054282295,"semimajor_km":6869.9227609606,"source":"CELESTRAK","updated_at":"2026-05-25T13:37:55.826885Z"}}}